STARLINK-5640, 55436

Orbit data source: Space-Track

STARLINK-5640, 55436 is a payload satellite owned by SpaceX/Seattle (US) in LEO that was launched on Tue, 31 Jan 2023 UTC via an FALCON 9 launch vehicle from the Air Force Western Test Range (AFWTR). Payload-class satellites include a variety of spacecraft equipped with specific instruments for various scientific and technological missions. These include communications satellites like Starlink; space stations such as the ISS; scientific satellites like the Hubble; Earth observation satellites from companies like Planet Labs, Umbra, and HawkEye 360; GPS; miniature CubeSats for education and research; and military/defense satellites.

Loading next visibility...
Identifier
55436, 2023-014AX
Orbit
LEO
Country
Flag of USUS
Related business
Manufacturer
SpaceX/Seattle
Mission
Operational Commercial Communications
Bus & Motor
STARLINK, Unknown motor
Mass
305 kg wet, ~290 kg dry
Launch date (UTC)
2023-01-31 (3 years ago)
Launch vehicle
FALCON 9
Launch site
Air Force Western Test Range (AFWTR)
Object type
Payload
Rocket body
Debris
Shape & HBR
Box + 1 Pan, 10.1 m
Radar Cross Section
13.562 m², Large (>1 m²)

Expand to show TLE details & history
Last TLE update: 2 days ago

TLE from 2 days ago
0 STARLINK-5640
1 55436U 23014AX  26171.40737780  .00000380  00000-0  39641-4 0  9994
2 55436  69.9991 205.5106 0003393 271.8485  88.2286 14.98336566186459
Epoch: 2026-06-20T09:46Z
TLE epoch observation values (Epoch: 2026-06-20T09:46:37.441Z)
Latitude
Longitude
150.23215°
Altitude
574.387 km
Speed
7.574 km/s
True Right ascension
13h 42m 02s
True Declination
0° 00' 00"
Sunlit
Object was in full shadow at epoch
Visualization orbit readout
Latitude
Unknown
Longitude
Unknown
Altitude
Unknown
Speed
Unknown
Apparent Right ascension
Unknown
Apparent Declination
Unknown
Sunlit
N/A
Visualization observer readout
Local Sidereal Time
21:29:31
Azimuth
Unknown
Elevation
Unknown
Doppler factor
Unknown
Orbital elements
Apogee altitude
572.341 km
Perigee altitude
567.626 km
Semi-major axis
6,948.121 km
Eccentricity
0.00034
Inclination
69.9991°
RAAN
205.5106°
Arg. of periapsis
271.8485°
True anomaly
88.26746°
Mean anomaly
88.2286°
Eccentric anomaly
88.24803°
Mean motion
3.7475 °/min
Orbital period
96.06 mins
BSTAR
0.000039641
Loading maneuver chart data...
Computing Atmospheric mass density...

Documentation

Showing up to 5 results
|